�N����,����,�~����,�C��,���x,�C��,����,���ϕ���,�ő�u�ԕ���,�ő厞����,���˗�,�I�_���x,�n�����x,�ő啗���N��,DTYPE
"23/10/14","00:10",0.0,13.5,83.6,1009.3,324.2,1.8,2.8,333.4,0.00,10.8,18.2,"00:09:20",1
"23/10/14","00:20",0.0,13.5,83.9,1009.0,313.2,2.0,2.8,308.1,0.00,10.9,18.1,"00:13:32",1
"23/10/14","00:30",0.0,13.5,84.2,1009.0,299.8,1.7,2.7,312.1,0.00,10.9,18.2,"00:24:00",1
"23/10/14","00:40",0.0,13.3,84.5,1009.0,309.1,1.5,2.0,322.9,0.00,10.8,18.1,"00:36:24",1
"23/10/14","00:50",0.0,13.3,84.9,1009.0,335.8,1.5,3.1,339.4,0.00,10.9,18.1,"00:46:24",1
"23/10/14","01:00",0.0,13.4,85.1,1009.0,314.5,1.8,2.8,318.4,0.00,11.0,17.8,"00:56:16",1
"23/10/14","01:10",0.0,13.4,85.2,1009.0,318.3,2.0,2.9,338.7,0.00,11.0,18.0,"01:06:52",1
"23/10/14","01:20",0.0,13.7,85.1,1008.8,313.1,2.2,3.4,330.2,0.00,11.3,17.9,"01:18:24",1
"23/10/14","01:30",0.0,13.8,84.8,1008.8,319.3,2.0,3.3,343.3,0.00,11.3,18.1,"01:22:06",1
"23/10/14","01:40",0.0,13.7,84.6,1008.8,323.4,1.2,2.1,330.3,0.00,11.2,17.9,"01:31:44",1
"23/10/14","01:50",0.0,13.5,84.7,1008.6,324.6,1.6,2.5,331.5,0.00,11.0,17.9,"01:41:16",1
"23/10/14","02:00",0.0,13.5,84.9,1008.3,321.8,1.5,2.6,321.5,0.00,11.1,17.8,"01:58:42",1
"23/10/14","02:10",0.0,13.4,85.1,1008.8,298.6,1.3,2.4,335.2,0.00,11.0,17.8,"02:00:14",1
"23/10/14","02:20",0.0,13.2,85.4,1008.1,299.6,1.2,1.7,318.0,0.00,10.8,17.7,"02:12:46",1
"23/10/14","02:30",0.0,13.0,85.9,1007.8,304.6,1.6,2.1,320.2,0.00,10.7,17.7,"02:27:10",1
"23/10/14","02:40",0.0,12.8,86.2,1007.8,306.0,1.3,2.1,317.2,0.00,10.6,18.1,"02:31:40",1
"23/10/14","02:50",0.0,12.6,86.5,1007.8,301.2,1.2,1.7,312.1,0.00,10.4,17.9,"02:44:10",1
"23/10/14","03:00",0.0,12.9,87.2,1007.8,299.3,2.0,3.3,316.0,0.00,10.9,17.7,"02:55:52",1
"23/10/14","03:10",0.0,13.3,87.4,1007.8,310.0,2.1,3.6,308.3,0.00,11.3,17.8,"03:06:22",1
"23/10/14","03:20",0.0,13.5,87.2,1007.6,312.8,2.0,3.4,306.2,0.00,11.5,17.7,"03:14:54",1
"23/10/14","03:30",0.0,13.4,87.0,1007.8,314.3,1.7,2.7,304.3,0.00,11.3,17.7,"03:25:32",1
"23/10/14","03:40",0.0,13.3,87.0,1007.6,318.1,1.7,2.6,314.2,0.00,11.2,17.7,"03:32:18",1
"23/10/14","03:50",0.0,13.2,87.0,1008.1,304.8,1.2,1.8,303.7,0.00,11.1,17.8,"03:47:46",1
"23/10/14","04:00",0.0,13.4,87.1,1007.8,311.6,2.0,3.2,333.5,0.00,11.3,17.6,"03:56:16",1
"23/10/14","04:10",0.0,13.3,87.1,1007.8,320.8,1.7,2.6,343.6,0.00,11.2,17.6,"04:01:22",1
"23/10/14","04:20",0.0,13.4,87.1,1008.1,294.1,1.6,2.8,338.2,0.00,11.3,17.6,"04:10:08",1
"23/10/14","04:30",0.0,13.3,87.1,1007.8,310.4,1.7,3.1,295.2,0.00,11.2,17.6,"04:23:28",1
"23/10/14","04:40",0.0,13.2,87.2,1007.6,316.7,1.6,2.9,314.0,0.00,11.2,17.7,"04:31:00",1
"23/10/14","04:50",0.0,13.1,87.6,1007.8,304.3,1.6,2.1,320.4,0.00,11.1,17.4,"04:43:22",1
"23/10/14","05:00",0.0,13.2,87.8,1007.8,321.8,1.5,2.8,338.6,0.00,11.3,17.5,"04:51:54",1
"23/10/14","05:10",0.0,13.2,88.0,1007.8,317.1,1.7,2.9,322.8,0.00,11.3,17.6,"05:04:02",1
"23/10/14","05:20",0.0,13.3,87.9,1007.6,284.8,1.5,3.4,320.0,0.00,11.4,17.5,"05:18:34",1
"23/10/14","05:30",0.0,13.4,87.8,1007.8,280.0,1.5,2.4,320.9,0.00,11.5,17.5,"05:21:44",1
"23/10/14","05:40",0.0,13.4,87.7,1007.8,314.7,1.6,2.4,322.1,0.00,11.4,17.5,"05:31:44",1
"23/10/14","05:50",0.0,13.1,87.8,1008.3,319.5,1.5,2.4,332.1,0.00,11.2,17.4,"05:40:22",1
"23/10/14","06:00",0.0,13.2,88.1,1007.8,295.8,1.5,2.5,311.0,0.00,11.3,17.5,"05:51:50",1
"23/10/14","06:10",0.0,13.1,88.2,1007.6,301.8,1.5,2.4,276.8,0.00,11.2,17.4,"06:07:18",1
"23/10/14","06:20",0.0,13.2,88.3,1008.1,279.8,1.3,1.8,317.1,0.00,11.3,17.7,"06:14:16",1
"23/10/14","06:30",0.0,13.1,88.4,1007.8,286.4,1.1,1.4,291.1,0.00,11.3,17.5,"06:20:50",1
"23/10/14","06:40",0.0,13.2,88.6,1007.8,301.8,1.3,2.0,328.3,0.00,11.4,17.4,"06:35:18",1
"23/10/14","06:50",0.0,13.3,88.7,1007.8,294.0,1.5,3.4,317.0,0.00,11.5,17.4,"06:45:56",1
"23/10/14","07:00",0.0,13.6,88.8,1007.8,298.2,1.3,2.1,319.6,0.01,11.8,17.3,"06:51:08",1
"23/10/14","07:10",0.0,13.8,88.6,1008.1,286.0,1.1,2.1,272.9,0.01,12.0,17.3,"07:07:20",1
"23/10/14","07:20",0.0,13.9,88.4,1007.8,297.1,1.3,2.2,333.6,0.03,12.1,17.4,"07:18:44",1
"23/10/14","07:30",0.0,14.5,88.1,1007.6,304.5,1.5,2.4,313.0,0.05,12.6,17.5,"07:21:12",1
"23/10/14","07:40",0.0,14.8,87.7,1008.1,298.9,1.2,1.9,329.2,0.05,12.8,17.5,"07:34:42",1
"23/10/14","07:50",0.0,15.1,86.8,1007.8,273.6,1.0,1.7,260.0,0.06,13.0,17.3,"07:48:00",1
"23/10/14","08:00",0.0,15.5,86.1,1007.6,316.1,0.6,1.2,338.0,0.06,13.2,17.5,"07:56:16",1
"23/10/14","08:10",0.0,15.8,85.0,1008.1,316.6,1.2,1.8,339.0,0.09,13.3,17.4,"08:00:56",1
"23/10/14","08:20",0.0,16.0,83.4,1008.3,324.4,0.8,1.4,333.0,0.09,13.2,17.4,"08:10:16",1
"23/10/14","08:30",0.0,16.4,81.9,1008.3,342.4,0.6,1.3,329.1,0.09,13.3,17.5,"08:24:48",1
"23/10/14","08:40",0.0,17.0,80.6,1008.1,302.9,0.3,1.0,335.4,0.11,13.7,17.4,"08:33:52",1
"23/10/14","08:50",0.0,17.4,79.8,1008.1,271.9,0.8,1.6,250.5,0.16,13.9,17.4,"08:44:32",1
"23/10/14","09:00",0.0,18.2,77.0,1007.8,290.8,1.0,2.4,257.7,0.23,14.1,17.4,"08:51:44",1
"23/10/14","09:10",0.0,18.8,72.4,1007.8,235.6,0.6,1.7,219.4,0.23,13.8,17.6,"09:09:20",1
"23/10/14","09:20",0.0,19.0,69.9,1007.8,219.2,0.7,1.6,326.0,0.17,13.4,17.6,"09:16:48",1
"23/10/14","09:30",0.0,19.1,69.4,1007.1,224.0,0.6,1.2,198.2,0.12,13.4,17.8,"09:20:56",1
"23/10/14","09:40",0.0,19.0,69.2,1007.4,224.1,0.8,2.4,234.9,0.12,13.3,17.7,"09:30:48",1
"23/10/14","09:50",0.0,19.2,68.6,1007.1,245.4,0.6,1.3,232.6,0.14,13.3,18.0,"09:40:16",1
"23/10/14","10:00",0.0,19.7,68.0,1007.1,294.6,0.3,1.1,336.3,0.16,13.7,17.9,"09:57:20",1
"23/10/14","10:10",0.0,19.8,65.8,1006.9,218.6,0.6,1.3,235.7,0.17,13.3,17.7,"10:03:52",1
"23/10/14","10:20",0.0,19.9,65.8,1006.7,238.5,0.7,1.6,206.2,0.13,13.4,17.8,"10:13:28",1
"23/10/14","10:30",0.0,20.3,66.2,1006.9,299.0,0.6,1.4,321.4,0.17,13.8,17.8,"10:25:04",1
"23/10/14","10:40",0.0,20.5,64.8,1006.4,197.3,0.7,1.7,122.8,0.24,13.7,18.0,"10:34:08",1
"23/10/14","10:50",0.0,21.0,61.3,1006.2,1.6,0.7,1.4,73.1,0.25,13.3,18.0,"10:46:40",1
"23/10/14","11:00",0.0,21.2,60.0,1006.0,2.0,0.6,1.6,345.3,0.18,13.2,18.0,"10:56:40",1
"23/10/14","11:10",0.0,21.2,60.0,1006.2,302.6,0.8,1.9,344.5,0.18,13.2,18.1,"11:02:24",1
"23/10/14","11:20",0.0,20.9,60.6,1006.2,197.6,0.7,1.6,205.2,0.16,13.0,18.1,"11:13:28",1
"23/10/14","11:30",0.0,21.5,58.8,1005.7,251.0,0.6,1.6,230.9,0.27,13.1,18.2,"11:28:24",1
"23/10/14","11:40",0.0,21.9,58.2,1005.0,305.2,0.6,1.7,341.4,0.23,13.4,18.2,"11:38:56",1
"23/10/14","11:50",0.0,21.9,56.6,1005.2,358.5,0.7,1.6,351.0,0.19,12.9,18.3,"11:41:36",1
"23/10/14","12:00",0.0,22.0,56.3,1004.8,309.2,0.7,1.7,253.2,0.20,12.9,18.4,"11:52:40",1
"23/10/14","12:10",0.0,21.9,56.2,1005.0,25.7,0.6,1.7,48.2,0.15,12.8,18.2,"12:01:20",1
"23/10/14","12:20",0.0,21.3,57.9,1004.5,217.3,0.7,1.9,224.0,0.11,12.7,18.3,"12:18:32",1
"23/10/14","12:30",0.0,21.1,57.7,1004.8,197.3,0.7,1.7,205.2,0.11,12.5,18.4,"12:26:56",1
"23/10/14","12:40",0.0,21.3,57.6,1004.1,259.1,0.3,1.0,211.4,0.11,12.6,18.6,"12:30:08",1
"23/10/14","12:50",0.0,21.5,57.0,1004.1,315.3,0.7,1.4,319.7,0.12,12.7,18.6,"12:41:12",1
"23/10/14","13:00",0.0,21.9,57.1,1004.1,279.4,0.3,1.2,177.5,0.15,13.1,18.6,"12:59:36",1
"23/10/14","13:10",0.0,22.0,56.8,1003.8,5.0,0.6,1.4,40.3,0.12,13.1,18.5,"13:00:32",1
"23/10/14","13:20",0.0,21.9,56.1,1003.8,340.1,0.7,1.9,346.7,0.10,12.8,18.7,"13:12:00",1
"23/10/14","13:30",0.0,21.9,56.5,1003.8,313.1,0.6,1.1,341.0,0.10,12.9,18.7,"13:24:08",1
"23/10/14","13:40",0.0,21.8,56.9,1003.8,349.8,0.7,1.8,343.4,0.08,12.9,18.7,"13:38:56",1
"23/10/14","13:50",0.0,21.5,58.1,1003.6,339.3,1.2,2.2,341.6,0.07,13.0,18.7,"13:46:16",1
"23/10/14","14:00",0.0,21.4,59.5,1003.1,340.1,1.1,2.0,339.6,0.09,13.2,18.7,"13:55:52",1
"23/10/14","14:10",0.0,21.7,58.6,1003.1,358.3,0.6,1.7,327.9,0.10,13.3,18.8,"14:00:08",1
"23/10/14","14:20",0.0,22.0,58.3,1003.4,332.7,0.7,1.2,345.2,0.10,13.5,18.9,"14:13:28",1
"23/10/14","14:30",0.0,22.0,57.6,1003.4,330.7,0.6,1.3,341.0,0.05,13.3,18.7,"14:25:20",1
"23/10/14","14:40",0.0,21.7,60.0,1003.4,302.7,0.5,0.9,357.5,0.04,13.6,19.0,"14:30:02",1
"23/10/14","14:50",0.0,21.6,61.3,1003.4,339.8,0.6,1.4,357.2,0.05,13.9,18.8,"14:44:24",1
"23/10/14","15:00",0.0,21.4,62.1,1003.4,253.2,0.6,1.3,249.1,0.05,13.9,18.7,"14:50:02",1
"23/10/14","15:10",0.0,21.4,60.7,1003.1,283.7,1.0,1.9,261.0,0.07,13.5,19.0,"15:01:12",1
"23/10/14","15:20",0.0,21.4,61.5,1003.4,305.4,1.0,2.0,340.9,0.03,13.7,19.0,"15:16:16",1
"23/10/14","15:30",0.0,21.1,62.9,1003.6,307.1,0.8,1.3,330.7,0.01,13.8,19.1,"15:21:28",1
"23/10/14","15:40",0.0,21.1,64.0,1003.4,323.2,1.3,2.4,329.6,0.02,14.1,18.9,"15:39:04",1
"23/10/14","15:50",0.0,21.0,65.9,1003.4,328.1,1.5,2.0,317.3,0.02,14.4,19.1,"15:40:08",1
"23/10/14","16:00",0.0,20.9,67.9,1003.4,313.6,1.2,2.0,337.8,0.00,14.8,18.9,"15:51:12",1
"23/10/14","16:10",0.0,20.7,69.4,1003.4,310.1,1.1,1.4,332.7,0.01,14.9,19.0,"16:03:28",1
"23/10/14","16:20",0.0,20.5,70.4,1004.1,321.6,1.1,1.8,329.3,0.00,15.0,18.9,"16:11:44",1
"23/10/14","16:30",0.0,20.2,71.4,1003.8,316.8,1.2,2.1,323.1,0.00,14.9,19.1,"16:26:24",1
"23/10/14","16:40",0.0,19.8,72.7,1003.8,293.8,1.3,2.2,301.8,0.00,14.8,19.1,"16:34:00",1
"23/10/14","16:50",0.0,19.7,73.7,1003.8,313.5,1.2,1.9,336.3,0.00,14.9,18.9,"16:48:08",1
"23/10/14","17:00",0.0,19.4,74.9,1004.1,324.5,1.6,2.4,323.4,0.00,14.9,18.9,"16:53:04",1
"23/10/14","17:10",0.0,19.2,76.3,1004.3,321.7,1.5,2.4,329.8,0.00,15.0,19.1,"17:09:16",1
"23/10/14","17:20",0.0,19.0,77.4,1003.8,326.4,1.6,2.9,337.7,0.00,15.0,19.1,"17:10:56",1
"23/10/14","17:30",0.0,18.8,78.3,1004.1,317.0,1.3,2.1,302.8,0.00,15.0,18.9,"17:29:12",1
"23/10/14","17:40",0.0,18.7,78.9,1004.1,321.6,1.5,2.6,335.8,0.00,15.0,19.0,"17:31:36",1
"23/10/14","17:50",0.0,18.6,79.5,1004.1,310.8,1.3,2.8,338.7,0.00,15.0,18.8,"17:48:24",1
"23/10/14","18:00",0.0,18.5,80.0,1004.1,321.6,1.2,2.4,339.5,0.00,15.0,19.1,"17:52:08",1
"23/10/14","18:10",0.0,18.4,80.4,1004.5,315.2,1.5,2.4,321.7,0.00,15.0,18.8,"18:01:28",1
"23/10/14","18:20",0.0,18.3,80.6,1004.5,311.5,0.8,1.6,318.8,0.00,14.9,18.9,"18:12:24",1
"23/10/14","18:30",0.0,18.3,80.9,1004.5,306.0,1.2,1.9,308.7,0.00,15.0,19.0,"18:22:40",1
"23/10/14","18:40",0.0,18.2,81.3,1004.8,314.1,1.0,1.6,325.3,0.00,15.0,18.7,"18:38:08",1
"23/10/14","18:50",0.0,18.1,82.0,1004.8,297.1,1.1,2.2,339.1,0.00,15.0,18.9,"18:41:36",1
"23/10/14","19:00",0.2,17.9,82.8,1005.0,307.9,1.0,1.3,327.1,0.00,15.0,19.0,"18:57:52",1
"23/10/14","19:10",0.2,17.8,84.1,1005.0,326.1,1.2,2.4,320.5,0.00,15.1,18.9,"19:07:52",1
"23/10/14","19:20",0.0,17.4,85.4,1005.0,316.6,1.2,2.1,316.1,0.00,15.0,18.8,"19:13:12",1
"23/10/14","19:30",0.2,17.3,86.4,1005.0,302.9,1.2,1.9,322.5,0.00,15.0,18.7,"19:26:32",1
"23/10/14","19:40",0.4,17.3,87.5,1005.0,301.8,1.6,2.4,321.2,0.00,15.2,18.8,"19:38:48",1
"23/10/14","19:50",0.6,17.2,88.5,1005.0,333.3,1.7,2.7,337.3,0.00,15.3,18.9,"19:47:44",1
"23/10/14","20:00",0.6,17.0,89.4,1004.8,313.5,1.7,2.4,307.1,0.00,15.3,19.0,"19:50:24",1
"23/10/14","20:10",0.4,16.9,89.9,1004.8,314.5,1.3,1.9,317.5,0.00,15.3,18.8,"20:06:38",1
"23/10/14","20:20",1.0,16.8,90.5,1005.2,304.1,1.2,1.7,320.0,0.00,15.3,18.7,"20:16:58",1
"23/10/14","20:30",0.6,16.8,90.9,1005.0,303.3,1.0,1.2,299.9,0.00,15.3,18.8,"20:24:20",1
"23/10/14","20:40",0.4,16.8,91.3,1005.2,314.1,1.1,1.2,321.2,0.00,15.4,18.6,"20:35:40",1
"23/10/14","20:50",0.6,16.9,91.8,1005.0,333.8,1.1,1.4,338.5,0.00,15.6,18.7,"20:49:34",1
"23/10/14","21:00",0.4,16.8,92.0,1005.0,316.1,1.2,1.6,318.8,0.00,15.5,18.8,"20:53:02",1
"23/10/14","21:10",0.2,16.8,92.4,1005.0,298.5,1.2,1.8,307.7,0.00,15.6,18.8,"21:02:16",1
"23/10/14","21:20",0.4,16.8,92.6,1005.5,287.7,1.1,1.4,306.1,0.00,15.6,18.7,"21:16:48",1
"23/10/14","21:30",0.4,16.7,93.0,1005.0,303.2,1.0,1.3,317.8,0.00,15.6,18.7,"21:28:42",1
"23/10/14","21:40",0.4,16.7,93.2,1005.0,301.5,1.2,1.6,321.7,0.00,15.6,18.7,"21:39:56",1
"23/10/14","21:50",0.4,16.7,93.4,1004.8,304.3,1.3,1.7,316.1,0.00,15.7,18.7,"21:40:48",1
"23/10/14","22:00",0.6,16.6,93.5,1004.8,289.4,1.0,1.3,304.5,0.00,15.6,18.7,"21:52:22",1
"23/10/14","22:10",1.0,16.5,93.8,1005.2,276.8,0.7,1.0,298.2,0.00,15.5,18.7,"22:06:34",1
"23/10/14","22:20",0.6,16.6,93.9,1005.2,273.6,0.7,1.0,262.8,0.00,15.7,18.7,"22:13:36",1
"23/10/14","22:30",0.4,16.5,94.1,1004.5,292.6,0.8,1.6,312.6,0.00,15.6,18.6,"22:27:44",1
"23/10/14","22:40",0.4,16.6,94.2,1004.8,308.7,0.8,1.4,317.0,0.00,15.7,18.5,"22:39:20",1
"23/10/14","22:50",0.4,16.6,94.4,1004.3,313.7,1.3,2.0,324.7,0.00,15.7,18.6,"22:41:44",1
"23/10/14","23:00",0.2,16.6,94.5,1004.5,312.9,1.2,1.9,324.7,0.00,15.8,18.5,"22:58:48",1
"23/10/14","23:10",0.2,16.6,94.7,1004.5,307.5,1.5,2.1,301.2,0.00,15.8,18.5,"23:06:08",1
"23/10/14","23:20",0.0,16.5,94.9,1004.5,300.0,1.6,2.5,316.4,0.00,15.7,18.7,"23:14:48",1
"23/10/14","23:30",0.4,16.4,95.1,1004.1,285.7,1.2,2.1,309.9,0.00,15.7,18.4,"23:20:08",1
"23/10/14","23:40",0.0,16.4,95.2,1004.5,282.7,1.2,2.0,311.4,0.00,15.7,18.4,"23:30:48",1
"23/10/14","23:50",0.4,16.3,95.4,1003.8,288.6,1.3,2.0,306.4,0.00,15.6,18.6,"23:48:08",1
"23/10/14","24:00",0.2,16.3,95.5,1004.1,300.3,1.2,1.8,318.9,0.00,15.6,18.5,"23:57:46",1
